Theta_e
314 312 313 315 317 318 320 322 324 325 325 324 324 324 324 325 325 325 325 325 325 325 326 325 324 323 324 323 322 319 312 311 313 314 317 317 316 314 311 311 311 311 314 315 314 312 310 310 314 315 316 317 317 318 318 318 318 320 329 330 323 322 323 318 318 314 315 319 311 308 312 314 315 312 312 313 313 313 314 314 316 316 316 316 316 317 315 312
312 312 313 316 317 317 318 319 321 323 324 324 324 324 324 325 325 325 325 325 325 325 326 324 322 322 324 324 320 314 311 312 311 312 317 316 316 314 311 311 311 311 314 315 314 311 311 311 313 316 317 317 316 317 317 318 317 320 327 328 328 327 320 314 314 310 312 314 310 309 312 313 314 312 312 314 313 313 314 314 314 315 316 316 316 316 316 313
313 313 313 315 316 316 316 316 317 320 323 324 324 324 324 325 325 326 326 326 326 326 326 323 321 323 325 326 318 310 313 314 312 315 318 314 313 312 310 311 311 312 314 315 313 311 311 311 313 316 317 316 316 317 316 317 316 317 321 328 332 324 314 311 311 311 312 313 310 309 311 312 313 312 313 313 312 312 313 314 313 315 315 316 316 316 317 315
313 314 313 314 315 316 316 315 315 316 319 322 323 324 325 326 326 327 327 327 328 326 325 323 323 326 327 324 314 310 316 314 313 317 318 313 311 311 310 311 310 313 315 314 312 311 310 311 314 316 316 315 315 316 315 316 316 315 320 327 323 313 314 313 312 312 312 312 311 310 310 311 312 312 313 312 313 314 313 314 314 315 314 315 315 315 317 316
313 312 312 313 314 315 316 316 316 316 317 319 321 323 324 326 327 328 329 330 329 327 326 325 326 326 323 317 310 313 316 312 312 316 315 312 310 310 311 311 311 313 314 313 311 310 310 312 315 316 315 314 314 316 315 314 315 315 315 316 312 309 315 314 311 313 312 312 312 310 311 312 312 312 312 313 315 316 314 314 315 314 314 315 315 315 316 316
312 311 312 314 315 315 316 317 317 317 318 318 319 321 323 325 327 329 330 329 326 324 325 326 322 317 314 310 309 314 315 313 313 313 312 312 311 310 311 311 311 312 314 313 311 310 311 312 315 315 314 313 314 315 315 313 314 318 314 309 310 310 312 312 311 312 312 312 311 309 312 312 311 312 312 312 314 315 314 314 314 314 314 314 314 315 315 315
311 311 314 315 315 315 315 317 317 318 318 318 319 320 321 323 325 328 327 324 322 321 324 323 316 310 310 310 308 311 313 314 313 312 312 311 310 310 311 312 311 312 314 313 311 311 312 313 314 314 314 313 313 312 314 313 312 319 317 310 310 310 310 312 312 312 311 312 312 311 312 311 312 313 311 312 314 314 314 314 314 314 315 314 314 314 315 315
310 312 315 315 313 313 314 317 317 317 318 318 319 319 319 319 321 323 322 321 321 322 323 320 313 309 310 310 308 309 310 311 311 312 313 312 310 311 311 312 312 313 314 312 311 311 312 313 314 313 313 312 313 312 312 313 312 317 317 310 309 310 310 312 312 311 311 311 311 311 311 311 312 312 311 312 314 314 314 314 314 314 314 314 314 314 315 314
311 313 315 314 310 310 312 315 317 317 318 319 319 318 317 317 318 319 319 320 322 323 322 317 311 310 310 310 309 308 309 310 310 311 313 313 311 310 312 313 314 315 314 312 311 311 313 313 313 313 312 311 312 313 312 313 314 313 313 310 310 310 310 310 310 310 310 310 311 311 311 310 311 311 312 313 314 314 314 314 314 314 314 314 315 315 315 314
312 313 314 313 309 309 311 313 316 317 317 319 320 319 318 318 319 319 321 322 323 323 320 314 310 310 310 309 308 308 310 309 309 310 312 313 312 312 315 315 315 315 313 313 311 312 313 313 313 313 312 312 311 311 311 313 314 312 310 310 310 310 310 311 311 310 310 310 310 312 312 311 311 312 314 314 314 314 314 314 314 314 314 314 315 315 315 314
312 313 313 312 309 309 310 311 313 314 315 317 319 320 320 320 321 321 322 323 323 324 320 313 310 310 309 309 308 308 311 311 309 309 310 312 313 314 316 316 314 313 312 312 311 312 313 313 313 313 313 313 311 310 310 311 312 311 312 312 310 310 311 311 311 311 311 312 311 312 311 310 311 312 315 314 314 314 314 314 314 314 314 313 314 315 315 315
312 313 313 311 309 310 311 310 310 310 311 313 316 318 319 321 322 322 324 324 324 324 318 312 310 310 309 308 308 308 311 311 311 310 309 311 314 315 315 314 313 312 312 311 311 312 313 314 313 313 313 312 312 312 312 311 311 311 312 315 312 311 312 311 310 311 312 313 311 311 312 313 314 314 314 314 314 314 314 314 314 314 314 314 314 315 315 315
312 312 313 311 309 310 312 310 308 309 308 308 311 313 316 318 319 320 321 320 321 318 313 310 309 309 308 308 308 308 309 311 313 313 311 311 313 315 313 313 313 313 313 312 311 311 312 314 313 314 313 312 312 312 312 311 311 312 311 315 315 313 314 310 309 312 312 313 311 311 314 318 318 313 312 314 313 313 313 314 314 314 314 314 314 314 315 315
312 312 312 311 309 310 311 309 308 308 307 306 307 308 310 311 312 312 313 313 312 311 309 309 308 308 308 309 310 309 309 310 313 315 314 312 314 314 313 314 314 314 313 312 312 311 312 314 313 314 313 313 312 311 315 312 313 315 310 315 318 314 316 312 308 311 313 313 311 311 313 319 320 312 310 312 313 313 314 314 314 314 314 314 314 314 314 315
312 312 313 312 310 309 309 309 308 308 307 307 306 307 307 308 308 308 309 309 309 309 309 308 308 308 308 308 309 310 309 309 311 313 314 314 314 314 314 314 315 315 314 313 313 313 313 314 314 314 312 313 312 312 318 318 320 320 312 316 317 312 317 315 308 309 313 313 310 312 315 317 317 312 310 311 312 312 313 314 314 314 314 314 314 314 314 314
312 312 313 313 310 309 309 309 308 308 307 307 307 308 308 308 309 308 309 309 308 308 308 307 308 308 308 308 310 310 309 309 309 310 314 314 313 314 314 314 315 315 314 314 315 314 315 315 313 313 311 312 313 316 319 319 323 322 318 321 318 314 316 315 310 307 310 312 311 311 315 319 317 311 311 312 312 313 312 313 313 314 314 314 314 314 314 314
311 312 313 313 311 309 309 309 309 308 308 308 308 308 308 308 308 308 308 307 307 307 307 308 308 308 308 309 311 311 310 310 309 310 314 314 313 314 314 315 316 315 315 315 315 315 315 314 312 313 312 311 313 317 317 316 318 318 320 323 319 316 315 315 315 308 307 312 313 312 313 318 317 311 311 313 312 312 313 314 314 315 315 315 315 314 314 314
311 312 312 312 311 310 309 309 308 308 308 308 308 308 308 308 308 308 307 306 306 306 307 308 307 309 310 309 311 312 311 311 309 311 314 314 314 314 314 315 315 315 315 314 314 315 314 312 312 316 316 313 313 316 316 315 316 315 318 320 316 314 313 316 318 311 309 313 314 315 314 315 316 311 311 312 312 312 313 314 314 315 315 315 315 315 315 315
312 312 312 311 310 310 309 309 308 308 308 308 308 308 307 307 307 307 306 306 307 308 310 310 308 310 312 309 311 312 312 311 311 313 314 313 314 313 314 315 315 315 314 314 314 313 313 313 313 317 317 315 314 315 316 318 318 317 318 321 321 319 316 317 318 309 308 314 315 316 316 315 316 315 312 312 312 311 313 314 315 316 316 316 316 316 315 315
313 313 312 311 310 310 309 309 308 308 307 308 308 307 307 307 309 310 308 307 308 309 310 310 308 310 312 309 310 312 312 312 312 313 314 313 314 314 314 314 314 315 314 317 317 312 313 317 316 317 316 315 315 314 315 317 317 316 317 322 322 321 317 316 315 309 306 313 317 318 320 316 316 315 311 311 312 310 311 313 315 316 316 316 316 315 315 315
314 313 312 311 310 309 309 309 308 308 308 308 307 308 308 308 310 311 309 308 309 310 309 309 308 310 311 309 310 313 312 313 313 313 313 313 314 314 314 314 315 315 313 313 315 312 314 318 318 318 315 313 315 315 315 316 316 316 318 319 318 318 318 313 313 312 307 312 318 319 320 317 316 315 311 310 311 311 312 313 315 316 316 316 316 315 315 315
314 313 312 311 310 309 309 309 308 308 307 307 307 308 307 308 310 310 309 309 309 310 310 309 308 311 312 310 310 313 313 313 313 313 313 313 314 314 313 315 316 316 313 311 314 315 316 318 318 314 309 309 313 316 318 318 320 321 318 317 317 317 317 312 311 314 310 312 320 320 319 318 317 316 312 309 310 313 313 313 314 315 315 315 315 315 315 315
315 313 312 312 311 309 309 309 309 308 307 307 307 308 308 309 311 309 308 309 309 309 310 310 308 310 312 311 311 313 313 313 314 314 313 313 314 313 313 314 316 317 315 314 317 317 318 320 314 307 306 311 314 315 317 318 319 320 317 317 318 315 316 315 313 314 311 311 317 319 317 317 317 316 314 309 307 310 311 312 313 313 314 315 314 314 314 314
316 314 313 313 312 310 309 309 309 308 308 307 307 308 308 309 311 309 308 307 308 309 309 310 309 309 311 312 311 313 313 312 313 314 314 314 314 313 313 313 315 316 314 315 316 317 318 314 305 304 309 314 315 313 316 317 316 316 318 324 323 317 317 317 313 313 312 310 312 314 315 321 323 321 320 312 305 307 308 310 312 313 313 314 314 313 314 314
316 314 314 313 313 312 310 310 309 308 308 307 307 307 307 309 310 308 307 307 307 308 308 310 310 309 310 312 312 313 313 312 312 313 313 314 314 312 312 311 313 316 315 315 316 317 316 307 304 308 312 315 315 314 317 319 317 315 318 327 327 321 320 317 314 315 317 314 310 310 314 327 331 327 325 318 312 313 309 306 311 313 313 312 313 314 314 315
316 315 314 313 313 312 310 310 309 309 308 307 307 307 307 310 309 307 309 310 310 308 307 309 310 310 310 312 313 312 313 313 312 314 314 313 314 312 312 311 311 314 314 313 314 315 312 305 307 313 314 315 316 314 316 318 318 316 315 320 322 322 324 322 318 318 320 315 308 309 315 322 326 325 325 320 318 321 314 308 310 311 312 311 312 313 313 314
316 315 314 313 313 312 310 310 310 309 308 307 307 307 308 310 309 307 310 310 310 310 308 308 309 310 311 312 313 312 315 315 313 313 314 314 313 312 313 313 311 311 310 311 314 313 310 309 311 314 315 316 316 315 315 316 319 317 314 316 320 322 324 323 321 322 321 313 311 316 317 315 318 319 320 316 317 322 321 317 313 308 310 312 312 312 312 313
316 315 314 313 313 312 310 310 309 309 309 308 307 307 308 310 308 308 311 309 308 309 308 308 309 310 312 312 312 312 314 314 313 314 313 314 313 311 313 313 313 315 308 310 316 312 310 314 313 313 315 315 315 316 315 315 321 318 310 313 317 319 323 324 324 325 318 310 316 322 313 312 320 322 319 314 315 319 322 322 316 308 310 313 312 312 313 313
316 315 315 313 313 312 311 310 309 308 308 308 307 308 309 309 308 308 310 308 307 308 308 309 310 311 312 312 311 311 312 312 313 315 313 313 313 312 314 311 310 315 309 310 319 313 310 314 311 312 315 315 315 314 313 319 321 312 306 311 314 316 321 322 323 324 318 314 322 322 312 311 319 326 323 314 314 319 320 319 314 309 311 314 313 312 312 313
316 316 315 314 313 313 311 311 310 308 309 308 307 308 308 309 308 307 307 307 309 308 306 308 310 311 312 312 311 311 312 313 312 313 312 312 312 310 312 310 309 316 316 316 320 314 309 310 309 310 312 311 311 310 309 314 313 308 311 316 316 319 323 322 323 321 316 319 324 317 312 312 313 323 326 316 315 319 317 317 314 311 312 314 313 312 312 313
317 316 315 314 314 313 312 311 310 309 308 307 308 309 309 310 310 308 306 309 312 309 306 308 309 312 313 312 312 312 313 313 311 312 313 312 312 311 311 311 312 317 319 319 318 314 311 312 311 310 309 307 310 311 308 307 306 311 321 320 316 321 322 323 326 319 315 324 321 312 310 311 311 320 323 316 317 317 313 316 318 313 311 313 314 313 314 315
317 316 315 315 314 313 313 311 310 309 308 308 310 308 308 310 310 309 307 308 311 309 309 309 309 312 314 312 313 314 315 315 311 312 315 313 313 312 313 315 317 317 315 316 317 315 316 316 311 310 309 309 314 316 312 312 313 316 319 319 318 320 317 320 326 319 318 321 313 309 311 311 311 316 316 314 317 315 309 310 314 311 310 313 315 314 315 316
317 317 316 315 315 314 313 311 310 309 308 309 310 309 311 311 309 309 309 308 309 308 310 311 310 312 314 313 314 314 314 315 312 312 314 314 313 312 313 316 318 319 317 317 318 316 317 317 313 313 313 310 313 317 315 317 317 315 315 318 321 320 314 316 318 313 315 316 310 308 311 313 314 313 314 316 312 310 307 307 309 310 310 314 315 315 316 316
317 317 316 315 315 315 313 312 311 308 308 310 309 308 312 312 309 309 309 308 309 308 309 312 312 313 314 313 314 314 313 313 312 313 313 314 314 313 314 312 314 321 322 318 317 316 317 318 315 315 314 311 313 315 317 318 315 314 316 316 318 322 322 320 320 319 319 316 311 309 311 318 319 312 313 313 307 307 309 309 309 310 312 314 314 315 316 316
317 316 316 315 315 315 313 313 312 309 308 310 308 308 310 310 309 310 308 309 312 310 309 311 312 313 314 313 313 312 313 314 313 314 314 314 313 313 314 311 312 320 321 315 315 315 315 315 313 310 308 311 314 312 313 316 316 315 313 313 315 321 323 318 313 316 317 314 312 311 314 320 318 311 310 307 305 306 307 307 310 312 313 314 315 316 316 316
316 314 315 314 315 314 313 312 311 309 309 310 307 308 310 309 311 312 308 309 313 311 310 311 313 314 313 312 313 311 312 315 314 314 314 313 313 313 313 312 312 315 316 315 317 316 314 313 313 311 309 310 312 309 308 312 315 314 312 315 316 314 318 315 307 307 310 312 313 313 315 318 313 312 315 312 311 310 307 306 309 312 313 314 316 316 315 316
315 314 314 314 314 314 312 313 310 309 310 309 307 309 309 308 311 312 309 309 311 310 311 312 311 314 313 312 314 313 312 314 314 314 314 313 314 314 313 312 311 312 313 315 317 318 317 314 312 314 314 310 307 307 307 306 310 316 317 316 311 308 314 318 312 313 314 313 316 314 314 316 314 314 319 316 313 314 313 309 307 309 313 314 316 317 315 316
314 314 313 313 314 313 313 312 310 310 311 309 308 310 309 308 308 309 308 307 309 311 312 312 311 312 313 313 313 312 313 315 314 314 314 313 314 314 313 313 311 310 310 311 312 315 319 317 311 311 315 312 309 311 312 308 307 313 316 311 311 314 316 314 312 317 316 312 320 320 312 311 312 316 321 316 313 317 316 312 310 310 311 314 317 317 316 316
313 312 312 313 313 313 313 311 309 311 311 309 309 310 309 308 306 307 308 307 309 311 310 311 312 311 311 312 313 312 312 313 313 314 314 313 314 312 311 313 312 309 307 309 312 313 316 319 314 310 312 312 312 314 316 315 310 309 309 307 314 322 319 314 313 316 316 312 317 321 316 315 313 315 321 316 316 320 316 316 316 310 310 314 316 317 317 316
312 311 311 312 312 313 312 310 310 312 312 309 309 309 309 308 306 305 307 308 309 310 311 314 313 311 312 312 311 312 312 313 312 313 313 312 312 311 310 312 313 310 306 308 313 313 313 316 315 313 312 313 317 317 316 317 313 311 311 310 314 316 314 315 313 313 317 317 317 317 318 325 321 313 315 314 315 318 314 315 315 308 309 314 314 316 317 316
311 311 311 311 311 312 311 310 311 313 312 310 308 308 308 307 307 307 307 308 309 308 311 315 313 313 314 312 311 312 312 313 312 312 313 311 311 311 310 310 311 310 308 309 313 316 314 313 315 315 314 316 318 314 311 314 314 312 313 312 314 314 313 316 314 311 312 313 316 315 313 322 324 314 314 315 315 312 306 305 308 308 309 312 313 315 316 316
311 311 311 310 311 311 310 310 311 312 313 311 308 308 308 307 308 308 306 308 311 310 310 312 313 315 314 311 311 312 312 313 312 312 314 312 312 312 309 308 309 309 310 311 313 313 313 316 319 317 316 316 313 307 303 307 313 313 313 313 314 313 314 318 318 314 310 306 310 313 312 318 323 312 308 310 308 304 301 301 304 307 310 312 312 313 314 316
311 311 311 310 310 310 310 311 311 312 312 310 307 308 308 308 309 309 308 309 310 311 311 311 312 312 312 311 311 312 312 312 311 312 314 313 311 311 308 308 309 309 310 313 313 310 311 317 319 316 316 316 313 309 304 306 311 314 314 314 313 314 316 321 322 318 314 310 310 313 312 318 324 308 300 301 301 301 305 305 305 309 313 313 313 312 312 315
310 310 310 310 310 310 310 311 311 312 312 309 308 309 308 308 309 309 310 310 311 312 313 313 310 308 312 314 312 311 312 312 312 312 313 314 310 307 307 308 309 311 310 311 313 311 311 316 317 316 317 316 315 314 312 312 313 315 317 314 313 316 315 314 315 315 315 315 315 317 316 316 320 312 305 306 307 307 308 309 309 312 314 314 313 313 312 314
308 308 308 309 310 310 311 311 310 312 312 309 309 311 310 309 307 308 309 310 312 314 313 311 309 310 315 315 310 311 311 313 315 312 311 314 311 306 306 307 309 310 310 310 311 311 313 316 315 315 316 315 315 316 316 316 314 314 317 314 312 315 313 312 314 314 315 315 313 317 318 312 311 314 313 315 318 315 311 310 312 313 314 315 314 313 313 314
306 308 309 309 310 310 310 310 309 311 311 310 310 311 312 311 309 308 309 310 310 311 310 309 309 311 314 312 310 312 311 311 314 313 311 313 313 308 305 306 308 308 309 310 309 312 317 317 313 313 314 313 313 314 316 319 317 316 317 315 312 312 311 315 318 316 315 314 311 315 316 312 311 315 315 317 321 321 313 309 312 313 313 315 315 314 315 315
304 306 308 309 309 310 310 309 309 310 311 310 310 310 311 312 311 309 309 310 310 311 312 311 311 312 312 311 311 312 311 310 312 314 312 311 313 310 305 305 307 307 309 309 308 314 319 315 312 313 314 312 313 315 317 318 317 316 316 314 312 312 312 315 316 314 314 314 313 313 313 312 312 314 317 319 321 321 313 308 312 314 312 313 314 315 315 314
304 305 305 307 308 309 310 310 309 310 310 310 310 311 310 311 312 311 310 309 309 311 313 312 312 313 312 311 312 312 311 311 311 313 313 312 313 312 308 307 307 306 309 309 308 313 316 314 313 314 313 312 314 317 318 316 316 316 316 314 312 311 312 313 314 313 314 313 313 313 313 312 311 312 317 318 315 315 313 310 312 313 312 312 313 314 315 314
303 304 304 306 306 306 308 310 308 309 310 310 310 310 310 311 311 310 311 311 311 311 313 314 314 313 312 311 312 313 312 311 312 313 313 312 314 314 312 311 309 307 308 310 308 308 312 316 315 311 311 312 314 316 317 316 316 316 315 313 312 311 311 312 313 313 313 313 313 313 313 313 311 311 314 314 311 310 310 310 311 312 313 312 311 313 314 314
302 303 303 304 304 304 306 309 309 308 309 309 310 310 309 310 311 310 310 312 313 313 313 314 315 313 312 312 313 313 312 312 313 313 312 313 314 314 315 314 313 309 308 310 309 306 309 317 315 310 311 312 312 314 316 315 315 316 315 312 311 311 311 312 313 313 312 312 312 312 313 312 310 309 309 309 310 309 308 310 311 313 313 312 311 312 313 314
302 302 302 303 304 304 306 308 309 308 308 308 309 309 309 309 310 311 310 309 311 314 314 315 316 313 311 311 314 314 312 312 313 312 311 312 312 312 313 312 312 312 311 311 312 309 310 315 314 312 312 313 312 313 313 312 312 312 313 312 311 311 312 311 312 312 312 312 312 312 312 312 310 307 307 308 308 307 308 310 311 313 313 312 312 313 313 314
301 302 301 303 305 305 305 307 309 309 308 308 308 308 309 309 308 309 311 309 308 311 312 313 314 314 313 312 313 312 310 309 310 310 309 310 310 310 310 310 309 311 312 311 312 312 312 314 315 314 314 314 312 311 311 312 311 311 312 313 312 311 311 311 312 312 312 312 313 312 312 312 312 310 310 310 308 307 308 310 311 313 313 312 313 313 314 314
Wind_Speed
32 32 35 34 33 34 36 40 44 46 45 45 44 43 42 41 39 37 35 33 31 28 24 22 22 20 19 17 15 13 12 13 13 15 22 22 14 13 16 13 10 10 10 9 10 9 9 10 11 11 13 12 9 11 10 7 9 6 3 3 2 3 3 6 8 7 4 3 7 12 17 12 5 10 8 5 8 7 9 13 10 11 12 7 5 3 6 13
32 33 36 35 33 34 34 38 43 44 44 46 44 42 41 40 39 37 35 33 31 29 25 23 22 21 20 17 15 14 13 15 14 19 24 19 15 14 15 14 12 11 11 10 10 10 10 12 13 13 13 11 7 11 10 7 8 4 3 3 3 5 4 7 10 10 4 4 11 13 16 13 7 11 11 5 6 7 7 10 11 12 14 12 8 6 7 12
32 33 35 35 34 33 33 35 40 42 44 44 43 41 41 40 38 37 36 34 32 29 26 24 23 21 20 17 15 13 13 14 16 22 24 17 17 17 14 14 13 12 11 10 10 10 10 11 14 14 13 10 7 11 8 5 6 2 3 3 4 7 4 6 10 10 6 5 12 14 13 12 7 10 12 6 4 5 7 10 12 14 16 15 12 10 9 12
32 32 33 34 33 31 30 31 34 39 41 41 41 40 40 40 38 36 35 34 31 28 27 26 24 23 21 17 15 13 10 9 15 22 20 17 19 17 15 15 14 13 12 10 10 11 10 11 14 14 11 7 6 10 7 5 5 2 4 2 4 6 3 4 8 7 6 6 11 15 12 9 8 10 12 8 4 3 11 16 15 15 14 15 15 13 11 13
30 31 32 32 32 31 30 28 30 33 36 38 38 39 39 38 37 35 34 32 29 28 29 26 23 21 18 16 14 12 6 2 9 15 15 16 18 17 16 14 14 15 13 10 11 12 12 13 15 14 8 4 6 7 4 5 6 3 2 1 3 6 3 4 7 6 7 7 12 16 11 9 10 10 13 12 7 4 8 13 14 14 11 12 14 14 13 14
29 30 32 31 31 32 31 28 28 29 30 33 35 37 36 35 34 33 31 29 25 24 26 24 20 17 15 16 14 11 10 4 2 5 10 16 17 18 17 14 15 15 14 11 11 13 12 14 15 13 7 3 5 5 4 8 7 3 1 1 5 5 3 5 6 5 8 10 13 15 11 12 12 8 12 16 14 8 3 3 6 10 12 12 13 14 14 14
29 31 31 32 33 33 31 28 27 27 27 30 33 33 33 32 32 32 30 27 24 22 21 20 18 17 16 17 14 12 16 15 5 5 6 14 17 17 16 16 16 15 15 13 13 15 14 16 16 13 7 3 4 4 6 9 5 3 2 3 6 4 4 5 5 5 8 10 11 13 11 10 12 7 7 16 21 15 7 4 3 3 9 13 14 14 14 13
31 33 32 32 33 32 31 29 27 27 27 30 31 31 30 30 31 30 29 26 24 22 20 20 19 19 19 18 17 15 20 23 17 9 7 9 16 16 16 16 16 15 16 14 14 16 15 17 17 13 5 1 6 6 8 8 2 2 3 5 7 5 5 5 5 7 8 8 9 12 9 7 11 7 5 15 18 15 15 13 9 5 6 11 15 15 14 14
34 34 31 30 30 30 30 29 28 27 29 31 31 30 29 30 30 29 28 26 25 23 21 21 20 21 20 20 19 14 19 25 21 11 5 6 14 15 16 16 16 16 16 15 15 16 16 17 18 13 5 4 8 8 9 8 1 3 6 7 8 5 6 7 6 7 7 8 11 11 6 4 8 4 7 16 15 13 16 16 17 14 10 9 12 15 15 15
35 34 30 27 28 29 29 30 29 28 30 32 31 30 30 30 30 29 28 26 25 23 21 21 22 22 20 21 18 10 16 23 22 16 6 5 12 15 16 15 15 15 16 16 16 17 17 16 18 12 5 8 9 7 8 6 2 8 13 12 9 7 6 6 7 9 8 9 9 8 4 3 6 3 5 8 8 12 15 15 16 16 15 12 11 13 16 16
33 33 30 27 28 29 29 30 30 29 30 31 31 31 31 30 29 29 28 26 25 23 22 22 23 22 21 21 19 12 14 17 18 20 13 8 11 14 14 13 13 14 15 17 17 18 16 13 16 12 3 7 10 6 5 5 6 14 18 12 7 7 7 6 7 9 7 6 5 6 4 2 5 3 6 6 3 5 9 14 16 15 15 14 12 13 15 17
31 32 30 28 29 29 29 29 30 29 29 30 32 32 32 31 30 29 28 27 26 24 24 23 23 22 20 20 23 19 13 13 14 17 16 11 10 13 13 12 12 13 14 15 16 18 15 11 15 12 4 10 9 5 6 8 11 13 12 6 4 5 5 4 4 4 4 3 4 6 2 1 2 6 8 7 7 5 5 9 13 15 15 15 15 14 14 16
29 30 28 27 29 29 29 29 29 27 27 29 31 31 32 31 30 29 28 28 27 26 25 23 22 21 18 16 20 21 16 13 11 12 14 12 11 13 12 12 12 12 13 13 13 17 15 10 13 12 8 11 7 6 10 10 10 7 5 4 3 4 3 3 2 2 4 3 5 6 1 5 7 11 9 8 9 9 9 9 11 13 15 17 17 17 15 16
29 29 27 26 27 28 28 27 27 26 26 28 29 29 29 29 28 28 27 26 25 24 23 21 20 19 18 13 10 17 20 15 10 8 11 12 12 13 12 11 11 11 11 12 12 14 15 11 11 10 9 10 10 13 9 5 5 4 3 2 3 2 4 4 3 2 4 3 5 5 2 6 7 8 7 10 12 10 12 11 11 13 15 17 17 19 19 18
29 28 26 25 25 26 24 24 25 25 26 27 27 27 27 27 26 25 24 24 23 21 20 19 19 17 14 11 8 14 20 18 14 10 9 12 13 12 12 12 11 12 12 12 12 13 13 12 11 9 9 12 15 12 4 4 4 3 3 0 2 3 4 6 3 1 3 3 4 5 2 6 8 6 3 7 11 11 14 13 12 14 14 15 17 19 20 20
28 29 27 25 25 24 23 24 25 24 26 26 26 25 25 24 23 23 22 21 20 19 19 18 20 16 7 7 10 12 16 18 17 14 10 12 13 12 11 12 12 12 13 12 12 13 14 13 10 10 11 11 10 6 4 4 3 4 3 3 2 3 2 3 2 3 2 3 1 2 2 3 4 4 1 3 4 5 10 12 13 14 14 15 17 19 21 21
28 29 27 26 25 23 24 25 25 25 25 25 25 24 23 23 21 21 20 19 18 18 18 16 19 16 6 6 10 12 14 16 17 15 12 13 13 11 12 13 12 13 14 13 12 13 14 12 10 8 6 4 3 5 5 2 1 1 2 2 2 4 3 2 1 3 5 2 2 1 2 6 5 5 4 4 3 6 8 10 11 13 14 14 15 17 20 21
28 28 27 26 25 24 24 25 26 26 25 25 24 23 22 21 20 19 19 20 19 17 15 15 17 11 7 10 10 10 14 14 16 14 13 15 13 12 13 13 13 14 15 13 10 11 10 6 6 4 3 3 2 5 5 4 5 6 3 3 1 1 2 3 2 2 4 2 2 1 4 9 9 11 14 12 10 12 14 14 14 15 15 15 15 16 18 19
27 27 26 26 25 26 25 25 27 25 26 25 23 24 22 21 19 18 21 23 20 13 7 15 20 6 3 13 13 10 13 13 15 15 14 16 14 14 14 12 14 16 15 9 5 7 7 4 4 4 2 3 6 6 7 7 7 9 6 5 5 3 3 5 4 4 1 3 3 4 5 7 8 10 16 19 14 13 17 18 20 21 20 20 20 20 20 21
27 26 26 26 25 26 25 26 26 26 28 27 29 28 23 21 15 10 20 23 16 7 2 18 26 7 2 14 19 13 13 14 15 17 17 16 16 16 14 14 14 12 8 5 4 4 5 4 3 5 7 9 8 5 5 5 6 8 6 4 4 4 2 3 3 5 2 3 3 3 4 8 10 9 14 21 16 14 19 21 24 24 23 24 24 24 24 24
27 26 26 25 26 27 25 26 25 27 28 27 33 29 21 25 14 9 20 14 9 7 5 20 28 10 2 11 20 16 14 14 14 18 18 17 18 16 13 13 10 4 1 3 5 2 3 5 6 7 7 8 7 6 8 6 7 6 6 5 2 2 2 2 2 4 3 1 2 3 4 9 11 9 14 17 12 12 19 20 23 25 24 26 26 26 26 26
26 26 27 25 26 27 26 26 25 27 27 28 35 24 19 28 18 18 24 10 9 11 7 21 27 13 2 7 17 17 12 10 11 18 19 20 20 14 10 9 6 3 1 3 6 3 2 4 6 6 7 8 6 5 9 7 7 5 4 5 3 3 2 2 2 4 5 0 3 4 4 9 11 9 12 16 14 16 20 20 23 24 25 27 27 27 27 27
25 25 27 25 26 26 26 26 25 28 28 30 34 20 18 26 15 19 23 8 9 11 7 20 26 19 8 7 14 16 11 8 9 18 20 21 20 13 11 8 5 5 3 3 6 5 4 5 4 7 10 10 6 4 9 7 5 4 4 5 3 3 2 2 2 3 4 2 1 1 3 7 8 7 10 14 16 18 19 21 25 26 28 30 29 29 29 30
24 25 26 25 25 26 26 27 27 29 29 30 30 19 20 25 17 20 19 6 4 8 6 14 21 23 17 10 13 14 11 9 11 19 21 21 18 11 9 8 6 5 4 5 7 6 4 4 2 8 7 8 7 4 7 6 2 1 3 6 3 4 4 3 2 1 2 2 3 2 3 6 5 5 8 7 6 9 11 14 20 23 26 28 28 28 27 26
26 25 25 25 25 26 27 28 29 29 28 29 28 20 21 24 20 22 13 5 2 5 6 9 11 17 20 14 13 14 13 10 12 20 22 21 19 11 7 7 6 4 5 6 7 5 3 2 5 8 4 6 8 4 5 7 4 1 4 6 6 7 7 3 3 4 3 3 3 3 2 5 4 4 8 5 6 7 6 7 15 18 17 19 20 18 16 13
28 25 25 26 26 27 28 27 28 29 27 29 28 21 22 23 21 21 10 5 1 3 5 9 8 11 17 14 13 14 9 6 11 20 24 21 19 13 7 4 2 2 5 6 4 2 1 1 4 7 6 7 7 5 6 6 6 2 4 5 7 8 9 7 6 4 2 1 2 3 3 4 6 5 7 5 7 10 8 8 15 16 12 12 13 13 10 9
29 27 26 27 26 29 29 26 28 30 26 28 28 22 23 24 22 18 7 6 3 4 7 8 8 11 14 14 18 13 4 7 11 16 22 21 18 14 8 4 3 2 5 5 2 1 2 3 3 5 6 6 6 5 6 7 7 3 3 5 9 9 9 8 6 4 2 2 2 3 3 2 5 6 6 5 6 9 9 8 12 11 8 9 11 12 11 12
32 29 27 27 26 27 28 25 29 33 27 27 28 23 22 24 21 13 6 3 2 4 6 7 8 12 14 18 21 10 6 13 10 9 20 20 15 10 5 5 6 4 3 4 5 2 3 5 5 6 6 4 5 4 4 8 6 3 3 5 7 8 8 6 6 4 1 1 3 4 3 1 5 6 5 5 4 7 9 9 10 10 10 11 11 10 10 14
34 30 27 28 25 24 23 20 25 30 26 27 29 23 23 24 17 7 4 1 3 3 4 8 10 11 14 17 14 6 8 10 4 9 19 17 13 8 4 6 10 8 3 3 5 2 1 4 5 6 5 4 3 2 2 4 3 4 6 7 7 6 6 5 5 4 3 2 4 4 2 1 5 6 4 2 2 6 8 8 8 10 11 11 9 6 9 13
37 31 28 29 26 25 24 17 19 25 25 28 30 26 26 22 11 5 2 3 3 2 3 8 9 10 14 11 3 1 5 2 4 13 14 10 10 8 9 10 9 8 4 6 5 1 1 2 1 2 3 5 5 4 4 2 8 11 7 7 7 6 5 4 3 4 3 2 6 4 2 0 3 6 4 3 4 6 5 4 6 7 9 10 6 2 7 11
38 35 31 30 27 25 24 20 20 25 27 30 30 29 25 13 4 4 5 3 3 2 2 4 4 8 15 12 4 2 2 2 5 12 8 5 7 8 9 7 4 5 3 4 3 3 3 3 1 1 4 7 7 6 7 5 8 8 4 6 6 4 4 4 4 3 2 4 6 3 2 1 3 6 4 4 6 6 5 3 5 6 10 10 4 3 8 12
40 37 31 29 25 22 21 20 21 26 28 31 33 30 18 5 1 5 4 2 3 3 5 5 4 6 11 9 5 4 3 2 3 6 5 4 4 5 5 4 4 4 0 3 2 3 2 1 1 1 3 5 5 5 5 4 3 4 5 7 5 2 3 2 3 1 2 5 4 2 1 2 5 8 8 10 10 7 8 9 7 8 10 8 3 5 9 14
38 36 33 29 24 20 18 17 21 26 31 35 33 22 8 3 7 8 4 2 2 2 4 4 2 5 10 8 4 4 3 2 4 3 2 3 4 4 1 2 6 5 2 5 4 2 0 3 2 2 2 4 4 5 4 2 1 4 6 6 5 3 3 2 3 1 3 4 2 2 1 2 5 5 9 14 11 6 8 11 10 10 9 4 1 6 11 14
35 35 37 34 27 22 18 18 21 26 34 38 28 12 5 5 8 7 6 5 2 1 3 4 6 7 8 6 4 6 3 0 4 4 2 4 6 5 4 3 4 5 4 4 3 5 4 3 3 3 1 2 3 3 5 5 4 2 2 5 6 5 5 5 4 3 3 2 2 3 1 3 3 2 6 11 11 9 11 14 14 12 8 4 5 9 12 15
34 38 40 37 32 25 21 21 22 26 38 36 17 7 8 9 8 6 8 6 2 1 2 3 8 9 5 1 1 5 2 1 4 4 4 6 7 8 7 6 5 4 6 5 3 2 3 3 3 2 2 2 3 2 3 6 3 1 1 5 3 4 5 4 3 5 4 0 1 2 3 4 3 6 9 8 10 12 11 12 12 10 6 6 9 11 14 16
35 40 38 36 35 29 23 22 22 29 39 29 9 7 11 10 7 6 7 6 5 6 7 4 4 6 5 2 0 5 1 2 5 3 3 4 4 7 8 6 7 7 6 6 3 1 2 2 3 3 2 3 1 2 1 3 3 2 2 3 4 3 7 6 2 1 3 1 3 1 4 5 3 7 9 4 6 8 5 6 9 10 8 9 12 13 15 17
36 39 38 36 34 29 25 23 24 34 36 20 7 9 10 9 6 5 5 8 9 10 10 4 2 4 6 3 4 7 2 3 5 3 4 4 2 6 7 4 7 10 7 4 3 3 5 2 3 2 2 2 1 4 6 5 3 4 3 5 4 3 5 5 2 2 3 2 4 1 4 5 2 4 7 5 6 8 4 5 6 8 10 12 14 15 17 18
39 38 36 37 33 28 26 23 27 36 28 10 8 11 9 7 4 6 9 10 10 10 8 5 4 3 6 6 5 7 5 4 5 4 5 4 4 7 10 5 6 11 10 4 2 2 5 3 2 1 2 2 3 4 4 5 5 3 4 3 4 3 2 2 2 2 1 2 4 3 4 4 4 5 4 3 7 8 5 5 5 7 13 16 18 19 18 18
39 32 26 33 34 27 25 24 29 31 17 6 11 11 7 6 3 9 19 15 8 7 6 5 3 2 4 7 5 6 6 6 7 5 4 5 5 6 11 7 4 10 13 8 4 3 4 4 1 1 1 1 3 1 4 1 4 4 2 2 3 2 4 2 2 4 3 3 3 4 4 3 6 6 5 7 9 8 6 6 5 10 15 18 20 20 19 20
37 20 13 29 35 28 28 28 27 21 8 8 13 6 3 5 2 9 23 18 5 3 5 4 4 4 4 4 3 5 5 5 8 6 4 5 4 4 8 9 6 8 10 6 4 3 3 3 3 1 3 1 1 2 6 7 4 2 3 3 2 1 2 1 0 2 4 4 3 2 3 6 6 5 8 11 9 8 7 6 7 11 15 18 20 21 21 22
33 11 9 30 35 30 32 26 16 10 5 10 11 3 1 4 4 8 16 14 5 2 4 6 6 5 5 5 4 5 4 3 6 6 3 5 6 4 8 12 11 11 7 4 4 4 2 3 5 2 0 3 3 3 3 5 5 5 5 6 6 4 4 3 2 1 2 3 4 3 3 8 6 4 7 8 6 7 6 6 9 12 14 17 20 22 23 24
23 5 12 33 36 34 33 18 7 7 6 8 6 1 3 4 7 10 11 8 5 3 4 5 4 4 5 5 5 6 7 5 5 6 4 7 8 5 7 12 17 19 12 4 3 3 3 4 5 2 3 4 4 3 0 2 1 2 4 4 6 5 5 6 5 3 2 1 2 3 1 8 6 4 6 7 6 6 6 6 9 10 12 16 20 23 24 25
17 6 17 35 37 37 27 8 4 7 6 4 0 2 2 2 4 8 7 5 4 3 3 3 3 3 3 4 5 8 8 6 6 8 5 4 6 4 6 15 21 19 11 4 3 4 3 4 4 1 3 3 4 3 2 1 1 2 4 3 5 3 3 5 5 4 5 3 3 3 2 8 5 2 4 7 8 8 8 9 9 8 10 15 19 23 25 26
17 12 20 34 39 36 22 6 8 11 8 4 1 1 0 1 3 7 7 6 4 4 5 3 3 4 3 4 6 8 10 6 5 8 4 2 4 4 9 21 23 15 9 8 9 10 6 3 5 4 2 3 4 3 2 2 2 4 3 3 5 4 6 5 2 4 2 4 6 5 5 7 5 3 1 2 5 8 9 9 8 6 9 13 17 21 24 26
15 10 14 31 40 35 18 7 9 12 10 6 3 4 2 1 2 6 7 5 3 4 6 4 4 5 4 5 5 4 9 6 3 6 4 1 2 2 9 23 23 14 8 7 12 15 9 3 6 7 6 5 5 6 5 3 3 2 2 5 8 8 9 6 3 4 3 5 6 6 7 7 4 5 3 2 3 5 6 7 9 9 11 13 15 18 21 25
7 3 7 21 31 29 17 8 6 7 9 9 5 5 4 1 2 3 5 4 2 3 4 3 5 6 5 7 7 5 10 6 2 4 6 5 3 2 6 18 22 15 6 5 15 15 4 1 7 10 11 12 12 10 6 6 6 6 7 10 11 10 10 7 5 4 6 4 4 7 10 10 7 5 6 6 5 5 5 9 14 15 15 17 17 17 18 21
3 1 4 8 14 17 14 10 7 4 9 12 6 5 7 5 2 2 2 3 5 5 4 3 5 7 6 10 8 6 11 7 2 4 6 6 3 2 1 8 14 14 6 8 18 13 4 3 8 10 13 13 9 7 6 8 10 12 11 11 10 11 10 9 8 9 6 6 5 12 12 14 13 7 8 9 6 5 7 14 19 19 19 19 19 20 20 20
2 0 3 4 5 6 9 13 12 5 7 11 4 3 8 7 5 5 3 0 3 6 3 1 5 10 13 13 8 5 7 6 4 4 4 4 2 2 2 1 4 6 3 6 11 7 4 7 9 7 12 12 4 5 6 7 8 8 11 13 13 13 13 13 15 11 8 8 13 17 15 17 15 9 9 11 10 10 13 18 20 20 20 19 19 23 24 23
3 1 3 3 1 2 5 13 13 5 6 10 5 3 8 9 8 6 3 3 2 4 3 4 7 10 12 13 9 7 8 7 7 7 4 5 4 3 3 1 1 3 3 4 4 3 3 4 5 6 9 12 4 5 5 7 6 5 9 13 14 15 17 17 17 14 12 13 19 18 14 15 14 10 11 15 17 16 13 12 14 19 23 23 22 24 26 26
3 2 3 2 1 2 3 11 13 7 4 8 8 5 6 10 10 5 1 5 6 4 3 7 9 9 10 11 10 8 11 13 11 10 8 6 3 4 4 4 4 3 3 4 1 2 4 3 1 6 5 9 4 5 5 6 7 5 6 8 11 14 15 16 17 16 13 15 20 16 10 13 11 11 13 16 16 12 8 10 16 21 24 25 24 26 27 27
4 3 3 3 1 1 3 6 9 7 4 6 9 7 6 9 10 6 1 1 5 6 6 8 8 7 6 8 11 10 12 14 9 10 17 14 10 11 8 6 9 8 4 5 4 3 5 2 2 5 4 6 5 7 6 5 5 3 3 7 12 13 14 16 17 15 14 15 16 10 9 13 7 10 12 14 14 13 14 18 21 24 26 27 27 27 27 26
4 3 3 2 1 3 3 3 6 8 6 7 7 5 5 6 6 6 3 2 3 6 9 11 10 7 5 8 13 11 10 11 5 7 19 18 11 13 11 8 15 14 8 7 5 3 6 5 2 4 6 5 2 6 8 7 4 1 5 12 18 18 18 16 14 13 13 13 12 10 13 14 5 9 10 11 12 15 21 25 27 28 30 29 29 29 28 28
Wind_Direction
208 200 193 195 199 202 204 206 209 210 209 210 212 213 214 214 214 216 217 219 222 223 225 228 229 226 214 214 231 236 237 233 230 234 234 225 224 256 257 256 257 232 226 216 207 210 207 197 188 178 172 170 170 175 170 164 159 149 105 91 146 178 196 184 179 189 158 155 184 180 178 166 173 189 181 176 190 201 199 201 200 199 202 194 177 179 191 191
204 197 190 189 194 200 202 205 208 210 210 211 213 214 215 215 215 216 218 220 222 223 225 225 225 225 216 214 227 230 229 232 241 233 224 225 227 237 244 248 250 230 220 217 210 209 207 199 186 174 172 170 160 166 166 160 150 121 92 111 192 199 202 189 176 179 144 124 170 175 180 177 176 179 176 179 193 190 194 210 210 210 211 208 205 201 198 196
199 197 195 191 193 198 200 202 205 209 210 211 212 213 214 216 216 216 219 221 222 223 222 221 222 221 214 217 225 220 223 240 252 233 220 227 230 225 230 239 240 221 213 215 210 206 208 201 186 175 172 167 153 164 163 156 158 104 109 124 231 207 203 197 180 177 156 122 157 166 176 180 178 174 181 191 182 187 208 212 209 216 216 210 209 207 206 202
200 199 198 194 192 193 196 198 200 204 207 209 211 212 213 214 215 216 218 221 221 220 220 220 220 216 209 214 224 219 222 252 253 238 232 234 228 220 221 229 230 213 207 210 207 202 200 194 184 177 171 157 148 162 159 158 175 148 134 168 226 182 151 192 182 177 170 143 156 161 162 179 185 180 187 180 150 225 234 224 221 224 217 206 206 208 211 208
204 201 196 193 193 190 191 193 194 196 200 204 207 210 211 211 213 214 215 218 219 217 218 218 213 208 204 209 222 216 200 274 262 253 252 236 225 223 219 223 222 210 204 208 206 198 192 186 180 177 170 143 142 155 165 163 153 132 151 239 169 148 125 178 173 174 179 158 155 155 154 178 180 186 196 184 177 223 239 233 233 236 227 212 212 211 213 212
205 197 189 190 194 192 189 190 189 188 191 196 201 206 207 207 208 209 210 211 212 209 207 207 206 204 200 205 211 197 187 192 319 301 255 225 219 219 217 219 215 208 207 207 203 195 188 182 179 178 163 121 153 151 157 163 150 142 228 140 129 122 111 153 168 184 184 165 158 162 166 172 167 186 204 202 213 217 225 229 224 234 228 220 220 218 217 217
200 191 187 192 197 194 189 188 185 184 187 192 196 199 198 199 201 202 204 203 202 198 194 199 206 206 199 199 199 194 210 219 233 329 281 217 210 212 213 215 208 206 207 204 201 194 186 181 181 178 148 93 172 155 140 155 145 126 149 161 138 103 101 144 176 183 181 175 168 169 167 169 173 183 205 220 227 224 224 206 170 211 218 217 220 221 223 225
194 189 191 197 198 193 189 186 183 183 189 192 194 193 191 193 195 197 198 197 198 195 194 198 203 205 199 198 193 195 218 222 228 277 309 216 205 205 208 208 204 205 207 206 205 195 187 184 181 174 152 111 174 157 141 144 99 98 139 161 141 105 103 120 149 162 172 174 166 165 160 170 186 188 225 236 234 228 232 232 229 237 222 218 219 222 225 227
190 190 194 199 195 191 188 185 183 185 190 194 193 191 189 191 192 193 194 194 196 195 197 199 202 204 199 199 194 200 223 222 222 245 313 227 204 200 203 203 203 206 207 206 204 197 192 187 183 181 181 172 155 150 152 150 239 164 136 140 135 109 106 110 123 136 151 158 155 156 135 143 178 196 256 249 246 236 236 238 239 242 239 227 221 224 227 228
189 192 197 200 192 188 186 183 183 186 191 194 193 192 193 193 193 193 193 194 195 196 199 199 201 203 201 198 193 207 226 220 222 231 267 254 208 199 200 204 207 209 211 205 200 198 195 191 189 183 173 165 146 141 157 156 190 146 123 112 109 106 108 115 126 124 130 144 157 156 124 126 152 173 254 248 246 235 233 236 237 239 238 234 228 226 228 231
190 193 198 200 194 189 184 183 186 187 191 193 192 194 196 195 195 195 195 195 196 197 200 201 201 203 204 200 197 209 219 216 225 230 242 258 220 205 202 208 212 210 210 206 201 197 195 196 190 180 174 170 147 125 141 136 134 135 124 100 69 86 97 96 120 126 123 132 166 152 123 102 119 184 232 208 195 221 228 231 233 234 234 232 231 230 229 230
190 193 197 199 195 188 184 186 186 185 188 189 190 194 197 197 198 198 198 198 198 199 201 200 200 203 202 206 213 213 212 216 226 230 236 248 228 210 205 207 209 207 208 207 205 197 192 190 189 191 177 158 147 113 133 131 126 127 123 107 19 37 66 56 91 130 127 121 153 131 115 281 200 222 222 204 216 233 230 229 230 232 231 229 230 231 230 230
189 191 194 197 194 187 186 188 183 182 184 183 187 191 194 196 197 198 199 198 198 197 197 197 199 203 199 210 223 216 213 218 222 227 228 234 227 212 205 203 204 203 201 204 203 197 192 187 191 194 159 149 141 124 136 123 119 120 100 107 60 29 4 344 20 135 126 124 153 138 221 265 255 243 223 212 225 232 236 234 231 232 232 230 231 233 233 230
186 189 191 192 192 190 190 187 180 179 179 179 183 185 187 190 192 193 193 193 192 190 191 193 195 197 200 214 221 211 215 217 217 225 221 220 216 206 202 200 200 196 192 192 191 191 190 185 186 179 149 144 130 121 117 70 85 107 82 70 78 145 253 312 350 141 129 159 169 137 219 259 271 261 226 226 232 234 239 238 236 235 233 232 233 235 236 233
185 187 189 189 190 190 190 185 180 178 177 177 178 177 180 182 184 186 186 186 185 185 186 186 189 189 201 221 212 204 214 218 223 230 223 214 208 202 198 193 191 187 182 179 178 179 176 176 175 150 123 133 130 118 76 23 33 45 104 305 354 161 245 313 354 73 132 179 165 128 203 267 267 270 265 240 236 236 240 242 241 235 231 234 238 239 239 237
184 186 188 190 188 186 184 182 181 179 176 175 173 173 176 179 180 180 181 181 178 180 180 181 187 185 189 220 210 207 212 216 222 227 224 209 199 196 192 186 182 178 176 172 172 171 165 164 152 126 118 130 130 109 68 51 8 2 103 175 237 167 234 306 4 4 43 145 150 134 201 274 276 266 247 172 199 233 239 243 243 241 245 248 248 246 244 242
183 185 187 189 187 183 179 179 180 178 176 173 171 171 172 173 176 176 175 174 172 171 174 178 182 187 209 217 205 208 207 209 212 217 216 199 192 193 186 178 172 174 175 169 168 166 161 155 139 127 114 112 123 111 102 72 264 288 61 122 212 183 186 272 262 343 21 118 202 38 210 241 263 272 237 191 268 293 274 263 256 252 255 256 252 246 244 245
180 183 186 187 186 181 178 178 179 177 173 169 168 167 166 168 169 171 169 163 158 154 164 174 169 179 232 216 202 201 200 202 202 203 202 191 185 185 182 173 168 168 160 155 161 159 153 137 126 131 57 62 136 133 147 197 179 181 179 143 183 191 199 254 238 285 17 89 204 227 242 252 268 279 271 267 285 289 283 281 275 267 261 259 255 249 246 247
177 179 183 186 185 181 179 179 177 175 169 164 162 158 155 155 153 160 164 158 153 146 160 175 167 157 236 198 194 192 190 190 190 190 189 186 177 175 177 170 167 162 148 141 160 160 142 104 101 137 134 155 190 175 179 194 165 165 167 144 152 159 224 249 248 278 16 122 227 234 242 267 273 279 277 276 284 285 282 283 278 273 269 265 260 255 252 250
174 177 180 183 184 182 181 179 176 173 168 166 163 154 147 146 137 148 163 160 158 147 141 173 174 170 52 179 183 178 176 177 181 181 179 182 175 169 168 161 160 155 147 147 165 161 133 135 166 181 184 185 187 161 145 149 130 136 126 111 147 153 224 255 266 308 19 150 242 253 267 279 269 268 274 276 283 280 276 277 275 273 269 266 264 260 257 255
173 176 178 180 182 182 183 180 176 172 170 171 167 160 160 161 151 161 163 157 162 143 126 171 178 183 67 170 178 171 163 164 174 176 175 179 173 167 165 159 149 142 183 133 122 113 116 164 208 208 190 168 153 125 107 96 88 105 129 136 168 195 218 255 271 324 7 161 263 356 318 278 269 268 270 274 275 265 263 264 268 270 268 267 265 263 262 261
175 176 176 179 181 182 184 179 175 174 171 173 171 167 174 173 170 172 163 149 168 155 140 173 181 188 135 158 175 173 160 149 167 175 174 175 175 177 171 156 140 145 183 106 109 106 141 209 230 199 151 109 89 91 96 89 88 89 114 136 177 226 221 290 307 342 14 63 272 360 338 279 272 270 266 264 253 255 260 257 261 266 266 266 265 266 266 265
179 177 175 177 180 182 183 179 177 176 174 176 174 168 174 176 174 172 163 137 167 171 158 175 186 192 177 160 175 177 166 145 163 175 175 176 177 180 168 147 128 138 154 162 150 150 182 251 243 161 139 117 90 78 96 89 85 94 112 131 186 232 176 218 250 331 16 69 273 346 317 285 283 284 271 259 250 256 261 256 258 259 260 263 264 266 267 269
181 180 176 175 178 181 180 180 180 178 178 178 175 169 171 174 170 167 159 95 140 188 184 181 190 194 190 180 178 182 177 163 168 175 177 178 173 170 166 147 124 137 171 175 153 154 194 273 186 142 133 129 123 114 123 119 96 90 156 146 168 197 177 192 185 72 11 29 44 41 320 295 300 301 278 273 274 266 259 257 258 255 256 261 263 265 268 270
182 184 180 174 177 180 178 180 182 180 180 178 175 171 169 171 168 163 153 61 102 191 195 190 196 200 198 192 183 181 176 168 171 175 178 180 173 159 151 145 142 172 181 145 129 156 219 256 147 137 114 122 127 148 174 150 135 247 217 178 174 171 155 137 126 94 47 359 4 27 311 286 316 303 265 294 341 299 272 263 260 256 254 258 262 264 262 256
182 187 183 178 179 179 178 182 182 180 180 179 176 170 168 169 165 163 149 47 288 211 178 185 187 194 196 193 177 167 168 179 176 176 176 180 179 163 143 134 109 164 164 133 126 168 206 105 124 133 132 132 133 175 199 153 130 207 234 172 149 138 131 135 138 112 110 211 344 53 172 258 317 303 269 310 329 300 295 275 264 262 259 259 262 263 248 225
183 188 186 183 184 182 181 182 179 178 179 180 176 167 168 168 162 165 134 36 277 191 150 176 179 180 186 181 171 161 159 172 162 173 176 176 180 170 161 163 89 127 161 130 149 216 108 109 87 106 120 127 146 191 207 150 134 208 238 134 130 128 136 147 125 105 173 210 336 23 119 229 296 273 276 327 323 303 305 284 274 279 281 281 278 270 250 226
182 188 190 187 191 192 188 185 181 178 177 178 173 165 166 164 160 159 114 60 215 150 144 174 168 174 175 170 174 169 144 154 147 175 179 173 176 165 161 184 144 133 153 137 183 248 94 156 171 137 125 148 176 226 205 144 124 246 222 124 130 126 127 125 98 95 52 37 298 323 46 204 268 272 301 343 321 296 294 277 283 307 320 317 299 272 238 221
181 187 192 190 194 196 193 192 185 179 177 173 168 164 163 160 155 132 88 158 167 108 145 161 157 170 166 162 175 167 140 153 138 164 169 167 174 165 133 162 139 113 66 88 161 197 60 179 189 149 149 182 183 302 243 153 121 177 156 102 87 79 82 83 86 96 49 40 240 271 18 207 264 284 304 352 284 255 266 271 281 310 335 335 312 264 216 206
183 188 193 192 192 191 190 187 178 177 175 169 166 163 159 156 146 121 155 214 155 98 137 155 166 168 154 150 176 155 131 139 120 137 148 151 157 143 115 128 126 109 51 37 91 193 335 103 107 107 145 157 135 62 16 100 135 143 131 85 70 42 40 51 55 79 66 311 253 257 320 343 270 280 252 209 225 218 230 287 287 310 353 355 330 239 192 186
187 186 193 196 194 191 187 176 167 172 171 166 162 158 154 146 108 139 188 195 122 94 114 149 175 157 157 161 168 162 89 39 134 139 141 134 128 122 115 121 104 84 53 41 56 336 9 75 59 76 123 127 112 65 36 64 120 122 101 98 88 11 14 26 2 43 107 249 264 275 312 159 223 260 249 234 257 229 206 251 265 296 344 358 7 144 165 168
189 185 193 199 199 199 191 176 169 168 166 163 160 156 149 123 154 188 197 152 145 190 178 178 198 167 166 160 141 154 112 74 174 152 144 139 136 148 144 164 152 97 142 184 130 357 42 80 324 62 151 161 122 84 45 359 30 84 109 117 101 19 23 4 310 340 212 239 269 292 257 214 232 252 262 263 265 245 230 236 241 279 321 352 44 133 151 158
191 188 193 198 200 201 194 181 174 168 164 162 158 152 131 131 200 203 201 183 201 201 151 145 137 140 150 143 146 168 117 130 189 155 124 132 147 178 208 175 150 127 182 177 136 121 69 308 308 103 217 225 158 124 139 261 241 135 141 135 133 123 114 223 252 283 254 250 293 288 238 257 268 263 249 250 252 234 237 247 255 278 301 329 126 149 150 153
194 193 192 190 193 198 198 191 181 171 165 161 157 145 127 179 202 196 190 214 256 51 93 114 109 122 146 151 187 179 112 72 179 126 103 130 145 188 220 215 163 108 110 146 155 162 173 255 226 162 211 202 172 165 155 141 132 177 170 129 147 158 155 195 206 192 228 259 304 292 241 198 217 259 238 244 264 264 251 255 262 270 278 256 193 167 157 155
192 191 189 187 187 190 194 191 182 174 167 161 156 158 171 193 208 192 186 196 204 91 58 97 119 134 160 67 290 201 141 159 178 123 139 165 170 187 188 194 195 138 125 156 196 163 167 236 264 299 288 138 156 222 132 105 109 245 110 105 162 181 138 139 174 173 168 117 294 249 240 214 214 282 271 254 271 272 259 257 250 245 245 211 193 176 164 160
189 186 187 188 185 180 182 185 180 176 170 162 156 184 191 204 197 181 174 150 151 140 105 80 97 132 165 79 258 231 296 115 167 153 172 187 193 191 187 190 189 179 164 158 167 157 153 243 317 346 12 56 109 214 70 95 160 167 119 166 211 161 113 116 172 93 91 188 257 209 254 288 321 293 290 289 271 270 264 246 221 210 211 195 187 180 170 167
188 185 188 189 184 175 174 179 177 175 173 168 180 190 201 215 178 138 145 129 133 136 123 137 170 141 164 161 187 205 192 114 166 181 179 185 226 191 189 213 187 187 193 157 163 200 155 130 341 29 80 18 33 101 63 44 86 122 173 202 183 114 93 112 146 19 50 232 272 276 239 283 323 273 311 338 269 259 251 224 206 199 201 190 184 183 176 171
183 180 186 189 184 173 169 175 176 175 174 174 204 203 206 212 166 117 136 131 132 141 140 168 172 140 167 174 181 186 173 159 178 193 173 185 243 192 174 193 189 190 199 164 138 199 135 114 331 25 126 308 350 95 88 30 41 112 178 168 117 136 166 108 137 159 140 232 276 303 274 260 215 226 298 304 231 239 234 201 188 197 199 192 186 183 179 175
174 168 176 185 183 174 169 174 173 173 172 181 204 213 201 184 182 157 153 141 131 147 156 178 161 105 168 170 161 169 180 178 172 182 184 188 238 201 175 179 178 190 193 166 149 183 123 126 220 318 261 290 5 106 178 170 27 46 112 108 76 128 163 161 148 162 177 198 242 306 326 258 227 215 215 220 221 222 200 170 192 209 200 196 192 184 180 180
169 160 166 177 178 174 169 169 169 169 179 203 201 214 183 162 196 175 160 148 131 148 163 181 161 139 158 164 153 166 181 177 169 186 213 188 207 228 195 184 159 173 177 139 130 164 107 129 168 326 328 222 175 215 190 173 147 107 129 159 178 71 109 165 78 112 142 159 186 261 300 264 247 205 201 219 231 229 199 168 206 213 196 196 197 189 185 183
164 156 163 169 170 167 161 159 166 175 198 215 210 222 139 153 137 170 168 156 137 126 143 151 153 151 150 154 171 171 154 151 175 192 221 198 201 224 210 191 161 150 146 108 138 165 133 143 152 138 250 198 225 262 199 179 173 160 171 185 179 152 122 153 244 267 117 137 168 173 261 266 252 201 204 218 226 238 226 189 205 212 196 195 197 194 194 188
164 146 168 170 168 162 157 153 178 198 205 216 214 146 133 147 143 166 177 161 135 105 112 127 137 146 152 160 167 160 152 156 185 195 211 216 211 213 208 186 161 154 154 141 151 156 117 107 115 142 208 213 260 303 159 219 224 161 200 196 169 163 138 152 205 219 119 105 139 117 264 270 258 200 209 229 235 254 262 224 217 216 202 200 198 196 198 193
161 128 163 171 171 165 159 152 184 203 231 224 180 53 130 121 133 159 172 172 159 135 127 140 147 152 168 167 151 160 168 170 191 200 210 222 214 216 193 171 160 157 156 141 145 149 120 108 111 52 312 312 319 340 31 17 19 218 237 193 158 181 147 145 182 169 138 169 150 95 278 270 275 239 218 243 258 272 274 245 227 216 198 196 195 195 198 194
139 123 157 171 174 170 167 171 181 199 220 187 120 326 180 74 137 157 172 188 184 152 142 155 171 159 162 148 139 168 182 175 199 209 210 211 204 199 179 171 166 164 173 180 176 174 177 157 126 109 31 357 348 339 324 308 226 209 227 164 148 130 103 109 124 102 131 205 161 143 239 256 285 317 259 261 285 282 270 244 222 203 187 183 185 190 196 195
125 115 154 171 175 176 180 195 188 197 199 168 180 221 187 26 185 173 175 178 170 154 152 165 165 135 128 135 108 147 185 176 176 196 197 220 222 209 180 179 178 178 192 191 169 167 177 180 148 153 168 181 198 210 216 221 192 192 199 169 171 162 148 149 119 110 209 225 159 167 233 253 305 329 302 280 292 279 258 222 202 188 175 172 175 182 189 194
117 103 151 168 179 188 199 208 192 195 190 176 188 201 174 146 205 179 163 164 178 149 123 123 145 118 116 152 131 155 199 197 100 161 192 201 219 296 190 186 189 191 195 167 160 155 141 219 186 187 194 196 204 206 177 127 142 186 197 181 180 181 167 143 118 165 197 172 159 216 239 251 264 274 263 249 223 223 225 199 194 189 177 170 168 173 180 187
91 100 161 161 182 196 204 204 194 191 187 184 187 187 178 172 160 152 159 184 196 168 94 49 160 153 160 167 152 172 197 194 133 159 186 190 203 329 177 184 195 199 193 165 165 149 89 212 204 204 214 216 208 194 160 141 168 193 186 174 179 179 163 157 184 201 159 121 222 237 230 243 247 218 223 242 226 218 222 204 198 194 185 176 168 170 177 179
148 136 200 174 170 196 208 200 192 168 164 180 190 175 179 175 159 171 181 150 199 185 140 52 194 180 171 165 156 160 175 179 201 199 175 162 158 68 66 92 203 203 189 161 169 146 110 206 208 195 221 236 196 143 166 162 169 184 174 172 177 171 170 186 204 204 152 158 234 235 216 231 239 200 201 227 217 209 213 207 201 191 186 188 178 171 175 177
187 192 228 202 161 260 198 174 172 149 147 177 196 181 180 185 183 187 160 102 185 219 165 159 199 193 174 165 155 156 168 175 201 211 177 145 154 126 104 119 205 191 153 131 169 170 145 213 211 168 218 245 203 138 179 170 152 170 179 178 175 173 182 196 207 209 189 201 234 236 224 238 238 202 201 219 216 215 215 209 203 192 190 196 191 182 180 180
160 170 207 178 37 338 144 148 158 166 160 183 200 196 182 190 191 194 136 140 169 210 189 177 188 180 171 173 166 172 188 187 193 201 169 131 151 176 163 181 174 149 151 147 157 197 182 229 186 131 206 251 201 146 184 169 155 171 175 172 173 178 191 203 212 214 207 220 237 242 253 266 245 195 202 221 221 219 221 216 209 203 201 204 203 196 189 187
149 130 138 143 119 241 161 145 158 173 182 193 199 191 184 199 194 170 142 191 167 174 179 172 161 146 152 182 190 199 201 191 185 180 171 166 178 186 185 181 161 147 161 178 164 161 181 216 55 110 186 244 202 171 169 110 94 117 141 170 180 185 197 206 212 211 202 216 234 242 255 262 238 165 186 214 217 218 225 224 218 213 211 212 212 207 198 197
193 168 139 141 170 187 187 157 157 179 198 197 194 181 171 196 190 159 174 247 187 177 174 159 146 135 145 188 204 211 198 186 176 166 178 184 184 181 184 173 163 162 166 171 170 169 167 168 146 145 186 245 236 155 140 100 87 239 222 194 189 195 204 207 215 220 207 205 214 219 232 239 198 143 178 200 206 216 225 227 226 224 221 219 219 217 212 211